ORCASAT (55126 NORAD) Tracking and Keplerian Element Data

This shows tracking and keplerian element data for the satellite.

Feedback or suggestion? Click here.




ElementValue
Catalog55126
NameORCASAT
Epoch Orbit238
Epoch Day13.29633372
Epoch Year2023
RAAN15.6413
Inclination51.6424
Eccentricity0.0003118
Argument of Perigee311.7366
Mean Anonmoly48.3357
Mean Motion15.51840665
Decay Rate0.00056946
L11 55126U 98067UT 23013.29633372 .00056946 00000+0 93531-3 0 9996
L22 55126 51.6424 15.6413 0003118 311.7366 48.3357 15.51840665 2387



Live tracking and technical data element details for ORCASAT (NORAD 55126). ORCASAT can be tracked NOW for your location showing map with azimuth and elevation plus other details from your city location.







IsCatalogInMostPopularTable: catalog: 55126, numindb: 12
Update: records affected: 1



GetName: 55126 ORCASAT

Hit Count: updated at: Tue, 07 Feb 2023 14:14:31 GMT